Weather History for Montevideo, MN

Change the Weather History Date:

Sunday, October 7, 2012

  Actual Average Record
Temperature  
Mean Temperature 42 °F -  
Max Temperature 57 °F 64 °F 92 °F (1980)
Min Temperature 26 °F 38 °F 20 °F (1976)
Degree Days  
Heating Degree Days 24    
Moisture  
Dew Point 20 °F    
Average Humidity 48    
Maximum Humidity 80    
Minimum Humidity 21    
Precipitation  
Precipitation 0.00 in - - ()
Sea Level Pressure  
Sea Level Pressure 30.04 in    
Wind  
Wind Speed 8 mph (WSW)    
Max Wind Speed 14 mph    
Max Gust Speed 24 mph    
Visibility 10 miles    
Events      
Averages and records for this station are not official NWS values.
T = Trace of Precipitation, MM = Missing Value Source: NWS Daily Summary

Daily Weather History Graph

Daily Weather History Graph

Search for Another Location

Airport:

Trip Planner

Search our weather history database for the weather conditions in past years. The results will help you decide how hot, cold, wet, or windy it might be!

Date:

Astronomy

Oct. 07, 2012 Rise Set
Actual Time 7:28 AM CDT 6:51 PM CDT
Civil Twilight 6:59 AM CDT 7:20 PM CDT
Nautical Twilight 6:25 AM CDT 7:54 PM CDT
Astronomical Twilight 5:51 AM CDT 8:28 PM CDT
Moon 11:53 PM CDT (10/7) 2:17 PM CDT (10/7)
Length of Visible Light 12h 20m
Length of Day
11h 22m
Waning Gibbous, 56% of the Moon is Illuminated
Oct 7
Waning Gibbous
Oct 8
Last Quarter
Oct 15
New
Oct 21
First Quarter
Oct 29
Full

Hourly Weather History & Observations

Time (CDT) Temp. Windchill Dew Point Humidity Pressure Visibility Wind Dir Wind Speed Gust Speed Precip Events Conditions
12:14 AM 30.2 °F 24.3 °F 21.2 °F 69% 30.25 in 10.0 mi West 5.8 mph - N/A   Clear
12:34 AM 30.2 °F 22.6 °F 21.2 °F 69% 30.25 in 10.0 mi West 8.1 mph - N/A   Clear
12:54 AM 30.2 °F 21.9 °F 21.2 °F 69% 30.24 in 10.0 mi West 9.2 mph - N/A   Clear
1:14 AM 28.4 °F 20.4 °F 21.2 °F 74% 30.24 in 10.0 mi West 8.1 mph - N/A   Clear
1:34 AM 28.4 °F 21.2 °F 21.2 °F 74% 30.23 in 10.0 mi West 6.9 mph - N/A   Clear
1:54 AM 28.4 °F 20.4 °F 21.2 °F 74% 30.23 in 10.0 mi West 8.1 mph - N/A   Clear
2:14 AM 28.4 °F 19.7 °F 21.2 °F 74% 30.23 in 10.0 mi West 9.2 mph - N/A   Clear
2:34 AM 28.4 °F 19.7 °F 21.2 °F 74% 30.22 in 10.0 mi West 9.2 mph - N/A   Clear
2:54 AM 30.2 °F 22.6 °F 21.2 °F 69% 30.22 in 10.0 mi West 8.1 mph - N/A   Clear
3:14 AM 30.2 °F 22.6 °F 21.2 °F 69% 30.21 in 10.0 mi West 8.1 mph - N/A   Clear
3:34 AM 28.4 °F 19.7 °F 21.2 °F 74% 30.20 in 10.0 mi WSW 9.2 mph - N/A   Clear
3:54 AM 28.4 °F 19.7 °F 21.2 °F 74% 30.19 in 10.0 mi WSW 9.2 mph - N/A   Clear
4:14 AM 28.4 °F 19.7 °F 21.2 °F 74% 30.19 in 10.0 mi WSW 9.2 mph - N/A   Clear
4:34 AM 28.4 °F 20.4 °F 21.2 °F 74% 30.18 in 10.0 mi WSW 8.1 mph - N/A   Clear
4:54 AM 28.4 °F 19.7 °F 21.2 °F 74% 30.18 in 10.0 mi WSW 9.2 mph - N/A   Clear
5:14 AM 28.4 °F 19.7 °F 21.2 °F 74% 30.17 in 10.0 mi WSW 9.2 mph - N/A   Clear
5:34 AM 28.4 °F 19.7 °F 21.2 °F 74% 30.16 in 10.0 mi WSW 9.2 mph - N/A   Clear
5:54 AM 26.6 °F 18.2 °F 21.2 °F 80% 30.16 in 10.0 mi WSW 8.1 mph - N/A   Clear
6:14 AM 26.6 °F 18.2 °F 21.2 °F 80% 30.16 in 10.0 mi West 8.1 mph - N/A   Clear
6:34 AM 26.6 °F 18.2 °F 21.2 °F 80% 30.16 in 10.0 mi West 8.1 mph - N/A   Clear
6:54 AM 28.4 °F 19.7 °F 21.2 °F 74% 30.15 in 10.0 mi WSW 9.2 mph - N/A   Clear
7:14 AM 28.4 °F 19.1 °F 21.2 °F 74% 30.14 in 10.0 mi WSW 10.4 mph - N/A   Clear
7:34 AM 28.4 °F 20.4 °F 21.2 °F 74% 30.14 in 10.0 mi WSW 8.1 mph - N/A   Clear
7:54 AM 30.2 °F 22.6 °F 21.2 °F 69% 30.13 in 10.0 mi WSW 8.1 mph - N/A   Clear
8:14 AM 30.2 °F 22.6 °F 21.2 °F 69% 30.13 in 10.0 mi WSW 8.1 mph - N/A   Clear
8:34 AM 32.0 °F 24.8 °F 21.2 °F 64% 30.13 in 10.0 mi WSW 8.1 mph - N/A   Clear
8:54 AM 33.8 °F 26.4 °F 21.2 °F 60% 30.12 in 10.0 mi WSW 9.2 mph - N/A   Clear
9:14 AM 33.8 °F 26.4 °F 23.0 °F 65% 30.12 in 10.0 mi WSW 9.2 mph - N/A   Clear
9:54 AM 39.2 °F 33.0 °F 23.0 °F 52% 30.11 in 10.0 mi WSW 9.2 mph - N/A   Clear
10:14 AM 41.0 °F 35.8 °F 23.0 °F 49% 30.10 in 10.0 mi WSW 8.1 mph - N/A   Clear
10:34 AM 42.8 °F 37.5 °F 23.0 °F 46% 30.10 in 10.0 mi West 9.2 mph - N/A   Clear
10:54 AM 44.6 °F 39.2 °F 23.0 °F 43% 30.09 in 10.0 mi WSW 10.4 mph 18.4 mph N/A   Clear
11:14 AM 46.4 °F 40.4 °F 21.2 °F 37% 30.07 in 10.0 mi WSW 13.8 mph 19.6 mph N/A   Clear
11:34 AM 48.2 °F - 21.2 °F 34% 30.07 in 10.0 mi West 6.9 mph - N/A   Clear
11:54 AM 50.0 °F - 19.4 °F 30% 30.06 in 10.0 mi West 9.2 mph 16.1 mph N/A   Clear
12:14 PM 51.8 °F - 19.4 °F 28% 30.05 in 10.0 mi West 6.9 mph - N/A   Clear
12:34 PM 51.8 °F - 17.6 °F 26% 30.04 in 10.0 mi West 9.2 mph 17.3 mph N/A   Clear
12:54 PM 53.6 °F - 17.6 °F 24% 30.03 in 10.0 mi West 11.5 mph 17.3 mph N/A   Clear
1:14 PM 53.6 °F - 17.6 °F 24% 30.02 in 10.0 mi West 12.7 mph 16.1 mph N/A   Clear
1:34 PM 53.6 °F - 19.4 °F 26% 30.00 in 10.0 mi West 12.7 mph 19.6 mph N/A   Clear
1:54 PM 53.6 °F - 19.4 °F 26% 29.99 in 10.0 mi West 13.8 mph 23.0 mph N/A   Clear
2:14 PM 55.4 °F - 19.4 °F 25% 29.98 in 10.0 mi West 12.7 mph 17.3 mph N/A   Clear
2:34 PM 55.4 °F - 21.2 °F 26% 29.97 in 10.0 mi West 10.4 mph 20.7 mph N/A   Mostly Cloudy
2:54 PM 55.4 °F - 21.2 °F 26% 29.96 in 10.0 mi West 12.7 mph - N/A   Mostly Cloudy
3:14 PM 55.4 °F - 17.6 °F 23% 29.95 in 10.0 mi West 10.4 mph 24.2 mph N/A   Mostly Cloudy
3:34 PM 55.4 °F - 17.6 °F 23% 29.94 in 10.0 mi West 12.7 mph 20.7 mph N/A   Scattered Clouds
3:54 PM 57.2 °F - 17.6 °F 21% 29.93 in 10.0 mi WNW 9.2 mph 20.7 mph N/A   Clear
4:14 PM 57.2 °F - 17.6 °F 21% 29.92 in 10.0 mi West 11.5 mph - N/A   Scattered Clouds
4:34 PM 55.4 °F - 17.6 °F 23% 29.92 in 10.0 mi West 11.5 mph 17.3 mph N/A   Scattered Clouds
4:54 PM 57.2 °F - 17.6 °F 21% 29.92 in 10.0 mi West 11.5 mph 16.1 mph N/A   Scattered Clouds
5:14 PM 55.4 °F - 17.6 °F 23% 29.91 in 10.0 mi WNW 9.2 mph - N/A   Clear
5:34 PM 55.4 °F - 17.6 °F 23% 29.91 in 10.0 mi West 5.8 mph - N/A   Scattered Clouds
5:54 PM 55.4 °F - 19.4 °F 25% 29.90 in 10.0 mi West 9.2 mph - N/A   Scattered Clouds
6:14 PM 55.4 °F - 19.4 °F 25% 29.90 in 10.0 mi West 6.9 mph - N/A   Clear
6:34 PM 53.6 °F - 19.4 °F 26% 29.89 in 10.0 mi West 4.6 mph - N/A   Clear
6:54 PM 50.0 °F - 19.4 °F 30% 29.89 in 10.0 mi WSW 3.5 mph - N/A   Clear
7:14 PM 50.0 °F - 17.6 °F 28% 29.89 in 10.0 mi WSW 3.5 mph - N/A   Clear
7:54 PM 48.2 °F - 19.4 °F 32% 29.89 in 10.0 mi WSW 4.6 mph - N/A   Clear
8:14 PM 46.4 °F 44.3 °F 19.4 °F 34% 29.88 in 10.0 mi WSW 4.6 mph - N/A   Clear
8:34 PM 44.6 °F 42.2 °F 19.4 °F 37% 29.88 in 10.0 mi SW 4.6 mph - N/A   Clear
8:54 PM 44.6 °F 43.1 °F 19.4 °F 37% 29.88 in 10.0 mi SSW 3.5 mph - N/A   Clear
9:14 PM 42.8 °F 40.1 °F 19.4 °F 39% 29.88 in 10.0 mi SSW 4.6 mph - N/A   Clear
9:34 PM 42.8 °F 40.1 °F 19.4 °F 39% 29.87 in 10.0 mi SSW 4.6 mph - N/A   Clear
9:54 PM 42.8 °F 39.3 °F 19.4 °F 39% 29.87 in 10.0 mi SW 5.8 mph - N/A   Clear
10:14 PM 42.8 °F 39.3 °F 17.6 °F 36% 29.86 in 10.0 mi SW 5.8 mph - N/A   Clear
10:34 PM 42.8 °F 39.3 °F 19.4 °F 39% 29.86 in 10.0 mi SSW 5.8 mph - N/A   Clear
10:54 PM 41.0 °F 36.4 °F 19.4 °F 42% 29.85 in 10.0 mi SW 6.9 mph - N/A   Clear
11:14 PM 41.0 °F 36.4 °F 19.4 °F 42% 29.84 in 10.0 mi SW 6.9 mph - N/A   Clear
11:34 PM 39.2 °F 34.2 °F 19.4 °F 45% 29.84 in 10.0 mi SW 6.9 mph - N/A   Clear
11:54 PM 39.2 °F 34.2 °F 19.4 °F 45% 29.83 in 10.0 mi SW 6.9 mph - N/A   Clear